Time,TemperatureF,DewpointF,PressureIn,WindDirection,WindDirectionDegrees,WindSpeedMPH,WindSpeedGustMPH,Humidity,HourlyPrecipIn,Conditions,Clouds,dailyrainin,SoftwareType,DateUTC
2013-02-26 00:01:00,33.0,33.0,30.37,WNW,296,0.0,2.0,99,0.00,,,0.38,,2013-02-26 08:01:00,
2013-02-26 00:11:00,33.0,33.0,30.37,WNW,296,0.0,2.0,99,0.00,,,0.38,,2013-02-26 08:11:00,
2013-02-26 00:21:00,34.0,34.0,30.36,WNW,296,0.0,0.0,99,0.00,,,0.38,,2013-02-26 08:21:00,
2013-02-26 00:31:00,34.0,34.0,30.36,NW,307,0.0,0.0,99,0.00,,,0.38,,2013-02-26 08:31:00,
2013-02-26 00:41:00,34.0,34.0,30.36,NW,307,0.0,0.0,99,0.00,,,0.38,,2013-02-26 08:41:00,
2013-02-26 00:52:00,33.0,32.0,30.36,NW,311,0.0,0.0,98,0.00,,,0.38,,2013-02-26 08:52:00,
2013-02-26 01:01:00,33.0,32.0,30.36,NW,311,0.0,0.0,98,0.00,,,0.38,,2013-02-26 09:01:00,
2013-02-26 01:11:00,33.0,32.0,30.36,NW,311,0.0,0.0,98,0.00,,,0.38,,2013-02-26 09:11:00,
2013-02-26 01:21:00,32.0,32.0,30.37,NW,311,0.0,0.0,98,0.00,,,0.38,,2013-02-26 09:21:00,
2013-02-26 01:31:00,31.0,31.0,30.37,NW,311,0.0,0.0,98,0.00,,,0.31,,2013-02-26 09:31:00,
2013-02-26 01:42:00,31.0,31.0,30.37,NW,311,0.0,0.0,98,0.00,,,0.31,,2013-02-26 09:42:00,
2013-02-26 01:51:00,31.0,31.0,30.37,NW,311,0.0,0.0,98,0.00,,,0.31,,2013-02-26 09:51:00,
2013-02-26 02:01:00,31.0,31.0,30.37,NW,311,0.0,0.0,98,0.00,,,0.31,,2013-02-26 10:01:00,
2013-02-26 02:11:00,31.0,31.0,30.37,NW,311,0.0,0.0,98,0.00,,,0.31,,2013-02-26 10:11:00,
2013-02-26 02:21:00,30.0,29.0,30.37,NW,311,0.0,0.0,98,0.00,,,0.31,,2013-02-26 10:21:00,
2013-02-26 02:31:00,30.0,29.0,30.37,NW,311,0.0,0.0,98,0.00,,,0.23,,2013-02-26 10:31:00,
2013-02-26 02:41:00,30.0,29.0,30.37,NW,311,0.0,0.0,98,0.00,,,0.23,,2013-02-26 10:41:00,
2013-02-26 02:51:00,30.0,30.0,30.37,NW,311,0.0,0.0,99,0.00,,,0.23,,2013-02-26 10:51:00,
2013-02-26 03:01:00,30.0,30.0,30.37,NW,311,0.0,0.0,99,0.00,,,0.23,,2013-02-26 11:01:00,
2013-02-26 03:11:00,30.0,30.0,30.37,NW,311,0.0,0.0,99,0.00,,,0.23,,2013-02-26 11:11:00,
2013-02-26 03:21:00,29.0,29.0,30.37,NW,311,0.0,0.0,99,0.00,,,0.23,,2013-02-26 11:21:00,
2013-02-26 03:31:00,29.0,29.0,30.37,NW,311,0.0,0.0,99,0.00,,,0.21,,2013-02-26 11:31:00,
2013-02-26 03:41:00,29.0,29.0,30.37,NW,311,0.0,0.0,99,0.00,,,0.21,,2013-02-26 11:41:00,
2013-02-26 03:52:00,29.0,29.0,30.37,NW,311,0.0,0.0,99,0.00,,,0.21,,2013-02-26 11:52:00,
2013-02-26 04:01:00,29.0,29.0,30.37,NW,311,0.0,0.0,99,0.00,,,0.21,,2013-02-26 12:01:00,
2013-02-26 04:11:00,29.0,29.0,30.37,NW,311,0.0,0.0,99,0.00,,,0.21,,2013-02-26 12:11:00,
2013-02-26 04:22:00,29.0,29.0,30.37,NW,307,0.0,0.0,99,0.00,,,0.21,,2013-02-26 12:22:00,
2013-02-26 04:32:00,29.0,29.0,30.37,NW,307,0.0,0.0,99,0.00,,,0.18,,2013-02-26 12:32:00,
2013-02-26 04:42:00,29.0,29.0,30.37,NW,307,0.0,0.0,99,0.00,,,0.18,,2013-02-26 12:42:00,
2013-02-26 04:52:00,29.0,29.0,30.38,NW,307,0.0,0.0,99,0.00,,,0.18,,2013-02-26 12:52:00,
2013-02-26 05:01:00,29.0,29.0,30.38,NW,307,0.0,0.0,99,0.00,,,0.18,,2013-02-26 13:01:00,
2013-02-26 05:11:00,29.0,29.0,30.38,NW,307,0.0,0.0,99,0.00,,,0.18,,2013-02-26 13:11:00,
2013-02-26 05:21:00,30.0,30.0,30.39,NW,307,0.0,0.0,99,0.00,,,0.18,,2013-02-26 13:21:00,
2013-02-26 05:31:00,30.0,30.0,30.39,NW,307,0.0,0.0,99,0.00,,,0.14,,2013-02-26 13:31:00,
2013-02-26 05:42:00,30.0,30.0,30.39,NW,307,0.0,0.0,99,0.00,,,0.14,,2013-02-26 13:42:00,
2013-02-26 05:51:00,30.0,30.0,30.38,NW,307,0.0,0.0,99,0.00,,,0.14,,2013-02-26 13:51:00,
2013-02-26 06:01:00,30.0,30.0,30.38,NW,307,0.0,0.0,99,0.00,,,0.14,,2013-02-26 14:01:00,
2013-02-26 06:11:00,30.0,30.0,30.38,NW,307,0.0,0.0,99,0.00,,,0.14,,2013-02-26 14:11:00,
2013-02-26 06:21:00,30.0,30.0,30.39,NW,307,0.0,0.0,99,0.00,,,0.14,,2013-02-26 14:21:00,
2013-02-26 06:31:00,30.0,30.0,30.39,NW,307,0.0,0.0,99,0.00,,,0.14,,2013-02-26 14:31:00,
2013-02-26 06:41:00,30.0,30.0,30.39,NW,307,0.0,0.0,99,0.00,,,0.14,,2013-02-26 14:41:00,
2013-02-26 06:52:00,31.0,31.0,30.39,NW,307,0.0,0.0,99,0.00,,,0.07,,2013-02-26 14:52:00,
2013-02-26 07:02:00,31.0,31.0,30.39,NW,307,0.0,0.0,99,0.00,,,0.07,,2013-02-26 15:02:00,
2013-02-26 07:11:00,31.0,31.0,30.39,NW,307,0.0,0.0,99,0.00,,,0.07,,2013-02-26 15:11:00,
2013-02-26 07:21:00,31.0,31.0,30.39,NNW,340,0.0,0.0,99,0.00,,,0.07,,2013-02-26 15:21:00,
2013-02-26 07:32:00,32.0,32.0,30.39,NNW,340,0.0,0.0,99,0.00,,,0.06,,2013-02-26 15:32:00,
2013-02-26 07:41:00,32.0,32.0,30.39,NNW,340,0.0,0.0,99,0.00,,,0.06,,2013-02-26 15:41:00,
2013-02-26 07:51:00,32.0,32.0,30.39,NNW,340,0.0,0.0,99,0.00,,,0.06,,2013-02-26 15:51:00,
2013-02-26 08:01:00,32.0,32.0,30.39,NNW,340,0.0,0.0,99,0.00,,,0.06,,2013-02-26 16:01:00,
2013-02-26 08:11:00,32.0,32.0,30.39,NNW,340,0.0,0.0,99,0.00,,,0.06,,2013-02-26 16:11:00,
2013-02-26 08:22:00,32.0,32.0,30.39,NNW,340,0.0,0.0,99,0.00,,,0.06,,2013-02-26 16:22:00,
2013-02-26 08:31:00,32.0,32.0,30.38,NNW,340,0.0,0.0,99,0.00,,,0.03,,2013-02-26 16:31:00,
2013-02-26 08:41:00,32.0,32.0,30.38,NNW,340,0.0,0.0,99,0.00,,,0.03,,2013-02-26 16:41:00,
2013-02-26 08:51:00,32.0,32.0,30.38,NNW,340,0.0,0.0,99,0.00,,,0.03,,2013-02-26 16:51:00,
2013-02-26 09:01:00,34.0,34.0,30.39,SW,226,0.0,0.0,99,0.00,,,0.03,,2013-02-26 17:01:00,
2013-02-26 09:11:00,34.0,34.0,30.39,SW,226,0.0,0.0,99,0.00,,,0.03,,2013-02-26 17:11:00,
2013-02-26 09:21:00,34.0,34.0,30.39,SW,217,0.0,0.0,99,0.00,,,0.03,,2013-02-26 17:21:00,
2013-02-26 09:32:00,35.0,35.0,30.39,SW,217,0.0,1.0,99,0.00,,,0.03,,2013-02-26 17:32:00,
2013-02-26 09:41:00,35.0,35.0,30.39,SW,217,0.0,1.0,99,0.00,,,0.03,,2013-02-26 17:41:00,
2013-02-26 09:52:00,36.0,36.0,30.38,SW,232,0.0,1.0,99,0.00,,,0.03,,2013-02-26 17:52:00,
2013-02-26 10:01:00,37.0,37.0,30.37,SSW,207,0.0,4.0,99,0.00,,,0.03,,2013-02-26 18:01:00,
2013-02-26 10:12:00,37.0,37.0,30.37,SSW,207,0.0,4.0,99,0.00,,,0.03,,2013-02-26 18:12:00,
2013-02-26 10:21:00,38.0,38.0,30.37,ENE,62,0.0,2.0,99,0.00,,,0.03,,2013-02-26 18:21:00,
2013-02-26 10:32:00,40.0,39.0,30.36,NE,51,0.0,0.0,98,0.00,,,0.03,,2013-02-26 18:32:00,
2013-02-26 10:42:00,40.0,39.0,30.36,NE,51,0.0,0.0,98,0.00,,,0.03,,2013-02-26 18:42:00,
2013-02-26 10:52:00,40.0,38.0,30.36,South,191,0.0,2.0,94,0.01,,,0.04,,2013-02-26 18:52:00,
2013-02-26 11:01:00,40.0,38.0,30.36,SSW,198,0.0,5.0,92,0.01,,,0.04,,2013-02-26 19:01:00,
2013-02-26 11:11:00,40.0,38.0,30.36,SSW,198,0.0,5.0,92,0.01,,,0.04,,2013-02-26 19:11:00,
2013-02-26 11:22:00,41.0,39.0,30.35,North,355,0.0,4.0,91,0.01,,,0.04,,2013-02-26 19:22:00,
2013-02-26 11:31:00,41.0,37.0,30.35,WSW,237,0.0,5.0,87,0.01,,,0.03,,2013-02-26 19:31:00,
2013-02-26 11:41:00,41.0,37.0,30.35,WSW,237,0.0,5.0,87,0.01,,,0.03,,2013-02-26 19:41:00,
2013-02-26 11:51:00,41.0,38.0,30.35,SW,219,0.0,2.0,88,0.00,,,0.03,,2013-02-26 19:51:00,
2013-02-26 12:01:00,42.0,38.0,30.34,SSE,167,1.0,6.0,87,0.00,,,0.03,,2013-02-26 20:01:00,
2013-02-26 12:11:00,42.0,38.0,30.34,SSE,167,1.0,6.0,87,0.00,,,0.03,,2013-02-26 20:11:00,
2013-02-26 12:21:00,43.0,39.0,30.34,NE,47,0.0,3.0,86,0.00,,,0.03,,2013-02-26 20:21:00,
2013-02-26 12:31:00,44.0,39.0,30.33,South,177,0.0,8.0,84,0.00,,,0.03,,2013-02-26 20:31:00,
2013-02-26 12:41:00,44.0,39.0,30.33,South,177,0.0,8.0,84,0.00,,,0.03,,2013-02-26 20:41:00,
2013-02-26 12:51:00,44.0,38.0,30.33,SSW,208,2.0,8.0,79,0.00,,,0.03,,2013-02-26 20:51:00,
2013-02-26 13:01:00,45.0,38.0,30.31,South,191,0.0,8.0,77,0.00,,,0.03,,2013-02-26 21:01:00,
2013-02-26 13:11:00,45.0,38.0,30.31,South,191,0.0,8.0,77,0.00,,,0.03,,2013-02-26 21:11:00,
2013-02-26 13:21:00,46.0,39.0,30.30,SSE,151,1.0,5.0,75,0.00,,,0.03,,2013-02-26 21:21:00,
2013-02-26 13:31:00,46.0,37.0,30.29,WSW,252,1.0,7.0,71,0.00,,,0.02,,2013-02-26 21:31:00,
2013-02-26 13:41:00,46.0,37.0,30.29,WSW,252,1.0,7.0,71,0.00,,,0.02,,2013-02-26 21:41:00,
2013-02-26 13:51:00,45.0,35.0,30.30,SE,141,2.0,8.0,69,0.00,,,0.02,,2013-02-26 21:51:00,
2013-02-26 14:01:00,45.0,37.0,30.29,SW,229,1.0,7.0,72,0.00,,,0.02,,2013-02-26 22:01:00,
2013-02-26 14:11:00,45.0,37.0,30.29,SW,229,1.0,7.0,72,0.00,,,0.02,,2013-02-26 22:11:00,
2013-02-26 14:21:00,45.0,36.0,30.29,ESE,120,0.0,3.0,70,0.00,,,0.02,,2013-02-26 22:21:00,
2013-02-26 14:31:00,45.0,37.0,30.29,WSW,248,0.0,7.0,73,0.00,,,0.02,,2013-02-26 22:31:00,
2013-02-26 14:41:00,45.0,37.0,30.29,WSW,248,0.0,7.0,73,0.00,,,0.02,,2013-02-26 22:41:00,
2013-02-26 14:51:00,45.0,36.0,30.29,SSE,168,1.0,7.0,71,0.00,,,0.02,,2013-02-26 22:51:00,
2013-02-26 15:01:00,46.0,37.0,30.29,WSW,241,0.0,5.0,71,0.00,,,0.02,,2013-02-26 23:01:00,
2013-02-26 15:11:00,46.0,37.0,30.29,WSW,241,0.0,5.0,71,0.00,,,0.02,,2013-02-26 23:11:00,
2013-02-26 15:21:00,46.0,37.0,30.29,West,261,0.0,8.0,70,0.00,,,0.02,,2013-02-26 23:21:00,
2013-02-26 15:31:00,45.0,35.0,30.29,SW,220,1.0,5.0,69,0.00,,,0.01,,2013-02-26 23:31:00,
2013-02-26 15:41:00,45.0,35.0,30.29,SW,220,1.0,5.0,69,0.00,,,0.01,,2013-02-26 23:41:00,
2013-02-26 15:52:00,45.0,37.0,30.29,SSE,150,0.0,3.0,72,0.00,,,0.01,,2013-02-26 23:52:00,
2013-02-26 16:01:00,44.0,35.0,30.29,South,188,1.0,7.0,71,0.00,,,0.01,,2013-02-27 00:01:00,
2013-02-26 16:11:00,44.0,35.0,30.29,South,188,1.0,7.0,71,0.00,,,0.01,,2013-02-27 00:11:00,
2013-02-26 16:21:00,44.0,35.0,30.28,WSW,255,0.0,3.0,71,0.00,,,0.01,,2013-02-27 00:21:00,
2013-02-26 16:31:00,43.0,35.0,30.28,SW,222,0.0,4.0,73,0.00,,,0.01,,2013-02-27 00:31:00,
2013-02-26 16:41:00,43.0,35.0,30.28,SW,222,0.0,4.0,73,0.00,,,0.01,,2013-02-27 00:41:00,
2013-02-26 16:52:00,43.0,36.0,30.28,NW,309,0.0,3.0,76,0.00,,,0.01,,2013-02-27 00:52:00,
2013-02-26 17:01:00,43.0,36.0,30.28,NW,309,0.0,3.0,76,0.00,,,0.01,,2013-02-27 01:01:00,
2013-02-26 17:11:00,43.0,36.0,30.28,NW,309,0.0,3.0,76,0.00,,,0.01,,2013-02-27 01:11:00,
2013-02-26 17:21:00,42.0,35.0,30.27,North,8,0.0,2.0,77,0.00,,,0.01,,2013-02-27 01:21:00,
2013-02-26 17:31:00,42.0,36.0,30.27,NW,311,0.0,0.0,79,0.00,,,0.01,,2013-02-27 01:31:00,
2013-02-26 17:42:00,42.0,36.0,30.27,NW,311,0.0,0.0,79,0.00,,,0.01,,2013-02-27 01:42:00,
2013-02-26 17:52:00,42.0,36.0,30.26,West,276,0.0,3.0,78,0.00,,,0.01,,2013-02-27 01:52:00,
2013-02-26 18:01:00,42.0,36.0,30.25,NE,44,0.0,1.0,79,0.00,,,0.01,,2013-02-27 02:01:00,
2013-02-26 18:12:00,42.0,36.0,30.25,NE,44,0.0,1.0,79,0.00,,,0.01,,2013-02-27 02:12:00,
2013-02-26 18:21:00,41.0,35.0,30.25,WSW,240,0.0,0.0,79,0.00,,,0.01,,2013-02-27 02:21:00,
2013-02-26 18:31:00,41.0,35.0,30.25,WSW,249,0.0,0.0,80,0.00,,,0.01,,2013-02-27 02:31:00,
2013-02-26 18:41:00,41.0,35.0,30.25,WSW,249,0.0,0.0,80,0.00,,,0.01,,2013-02-27 02:41:00,
2013-02-26 18:52:00,41.0,36.0,30.25,WSW,250,0.0,0.0,81,0.00,,,0.01,,2013-02-27 02:52:00,
2013-02-26 19:01:00,41.0,36.0,30.24,SSW,212,0.0,0.0,82,0.00,,,0.01,,2013-02-27 03:01:00,
2013-02-26 19:11:00,41.0,36.0,30.24,SSW,212,0.0,0.0,82,0.00,,,0.01,,2013-02-27 03:11:00,
2013-02-26 19:21:00,41.0,37.0,30.24,SSW,212,0.0,0.0,84,0.00,,,0.01,,2013-02-27 03:21:00,
2013-02-26 19:31:00,40.0,37.0,30.24,ENE,61,0.0,0.0,90,0.00,,,0.01,,2013-02-27 03:31:00,
2013-02-26 19:41:00,40.0,37.0,30.24,ENE,61,0.0,0.0,90,0.00,,,0.01,,2013-02-27 03:41:00,
2013-02-26 19:52:00,39.0,37.0,30.24,ENE,61,0.0,0.0,91,0.00,,,0.01,,2013-02-27 03:52:00,
2013-02-26 20:01:00,39.0,35.0,30.24,West,262,0.0,0.0,87,0.00,,,0.01,,2013-02-27 04:01:00,
2013-02-26 20:11:00,39.0,35.0,30.24,West,262,0.0,0.0,87,0.00,,,0.01,,2013-02-27 04:11:00,
2013-02-26 20:21:00,40.0,36.0,30.24,South,190,0.0,4.0,87,0.00,,,0.01,,2013-02-27 04:21:00,
2013-02-26 20:31:00,40.0,36.0,30.24,NNE,23,0.0,0.0,86,0.00,,,0.01,,2013-02-27 04:31:00,
2013-02-26 20:41:00,40.0,36.0,30.24,NNE,23,0.0,0.0,86,0.00,,,0.01,,2013-02-27 04:41:00,
2013-02-26 20:52:00,40.0,36.0,30.25,NNW,341,0.0,2.0,85,0.00,,,0.01,,2013-02-27 04:52:00,
2013-02-26 21:01:00,40.0,36.0,30.24,WSW,238,0.0,1.0,84,0.00,,,0.01,,2013-02-27 05:01:00,
2013-02-26 21:11:00,40.0,36.0,30.24,WSW,238,0.0,1.0,84,0.00,,,0.01,,2013-02-27 05:11:00,
2013-02-26 21:21:00,40.0,36.0,30.24,WSW,257,0.0,0.0,86,0.00,,,0.01,,2013-02-27 05:21:00,
2013-02-26 21:32:00,40.0,36.0,30.25,SW,227,0.0,0.0,86,0.00,,,0.01,,2013-02-27 05:32:00,
2013-02-26 21:41:00,40.0,36.0,30.25,SW,227,0.0,0.0,86,0.00,,,0.01,,2013-02-27 05:41:00,
2013-02-26 21:52:00,40.0,36.0,30.25,SW,226,0.0,0.0,87,0.00,,,0.01,,2013-02-27 05:52:00,
2013-02-26 22:02:00,40.0,36.0,30.25,SW,215,0.0,3.0,87,0.00,,,0.01,,2013-02-27 06:02:00,
2013-02-26 22:11:00,40.0,36.0,30.25,SW,215,0.0,3.0,87,0.00,,,0.01,,2013-02-27 06:11:00,
2013-02-26 22:21:00,40.0,37.0,30.24,SW,236,0.0,0.0,88,0.00,,,0.01,,2013-02-27 06:21:00,
2013-02-26 22:32:00,39.0,36.0,30.24,SW,226,0.0,0.0,88,0.00,,,0.01,,2013-02-27 06:32:00,
2013-02-26 22:41:00,39.0,36.0,30.24,SW,226,0.0,0.0,88,0.00,,,0.01,,2013-02-27 06:41:00,
2013-02-26 22:52:00,39.0,36.0,30.24,East,90,0.0,1.0,88,0.00,,,0.01,,2013-02-27 06:52:00,
2013-02-26 23:01:00,39.0,36.0,30.24,WSW,248,0.0,0.0,90,0.00,,,0.01,,2013-02-27 07:01:00,
2013-02-26 23:11:00,39.0,36.0,30.24,WSW,248,0.0,0.0,90,0.00,,,0.01,,2013-02-27 07:11:00,
2013-02-26 23:21:00,39.0,36.0,30.24,WSW,249,0.0,2.0,89,0.00,,,0.01,,2013-02-27 07:21:00,
2013-02-26 23:31:00,39.0,36.0,30.25,SW,233,0.0,2.0,88,0.00,,,0.01,,2013-02-27 07:31:00,
2013-02-26 23:41:00,39.0,36.0,30.25,SW,233,0.0,2.0,88,0.00,,,0.01,,2013-02-27 07:41:00,
2013-02-26 23:52:00,40.0,37.0,30.25,ESE,119,0.0,1.0,88,0.00,,,0.01,,2013-02-27 07:52:00,